Date String (YYYY-MM-DD hh:mm:ss) UTC,Instrument flags,Ambient pressure (hPa),Sample flow (lpm),Bypass flow (lpm),Sample temperature (°C),Ambient temperature (°C),ASC tube jacket temperature (°C),LED temperature (°C),Box temperature (°C),Sample RH (%),Span deviation,Mass concentration (μg/m³),Mass concentration (μg/m³),Mass concentration (μg/m³)
DateTimeUTC,F1_M11,P_M11,Q1_M11,Q2_M11,T1_M11,T2_M11,T3_M11,T4_M11,T5_M11,U1_M11,ZSPAN_M11,X0_M11,X2_M11,X1_M11
2021-11-10 00:00:00,,0823.4,5.01,0.00,28.9,28.0,00.0,37.9,30.7,14.9,-000.8,0044.44,0019.26,0016.68
2021-11-10 00:01:00,,0823.4,5.00,0.00,28.9,28.0,00.0,37.9,30.7,15.0,-000.9,0044.29,0019.31,0016.69
2021-11-10 00:02:00,,0823.3,4.99,0.00,28.9,28.0,00.0,37.9,30.7,15.0,-000.7,0044.04,0019.28,0016.70
2021-11-10 00:03:00,,0823.3,5.00,0.00,28.9,28.0,00.0,37.9,30.6,15.0,-000.5,0044.57,0019.32,0016.70
2021-11-10 00:04:00,,0823.3,5.01,0.00,28.9,28.0,00.0,37.9,30.6,15.0,-000.3,0043.09,0019.29,0016.70
2021-11-10 00:05:00,,0823.4,5.00,0.00,28.9,28.0,00.0,37.9,30.7,15.0,0000.0,0043.14,0019.37,0016.73
2021-11-10 00:06:00,,0823.3,5.02,0.00,28.9,28.0,00.0,37.9,30.7,15.0,-000.1,0042.77,0019.43,0016.74
2021-11-10 00:07:00,,0823.3,4.98,0.00,28.9,28.0,00.0,37.9,30.6,14.9,0000.1,0044.37,0019.45,0016.73
2021-11-10 00:08:00,,0823.4,5.02,0.00,28.9,28.0,00.0,37.9,30.7,14.9,-000.1,0044.42,0019.42,0016.74
2021-11-10 00:09:00,,0823.4,4.99,0.00,28.9,28.0,00.0,37.9,30.7,14.9,0000.1,0042.35,0019.48,0016.77
2021-11-10 00:10:00,,0823.4,5.00,0.00,28.9,28.0,00.0,37.9,30.7,14.9,0000.1,0042.25,0019.45,0016.73
2021-11-10 00:11:00,,0823.4,5.00,0.00,28.9,28.0,00.0,37.9,30.6,15.0,-000.0,0041.82,0019.40,0016.65
2021-11-10 00:12:00,,0823.4,4.99,0.00,28.9,28.0,00.0,37.9,30.6,14.9,-000.1,0042.12,0019.36,0016.56
2021-11-10 00:13:00,,0823.4,5.01,0.00,28.9,28.0,00.0,37.9,30.7,14.9,-000.4,0041.87,0019.27,0016.46
2021-11-10 00:14:00,,0823.3,5.00,0.00,28.9,28.0,00.0,37.9,30.7,14.9,-000.6,0042.71,0019.18,0016.36
2021-11-10 00:15:00,,0823.3,5.00,0.00,28.9,28.0,00.0,37.9,30.7,14.9,-000.8,0043.58,0019.11,0016.27
2021-11-10 00:16:00,,0823.3,5.00,0.00,28.9,28.0,00.0,37.9,30.7,14.9,-000.9,0043.23,0018.97,0016.15
2021-11-10 00:17:00,,0823.3,5.00,0.00,28.8,28.0,00.0,37.9,30.7,14.9,-001.0,0042.78,0018.95,0016.05
2021-11-10 00:18:00,,0823.3,4.99,0.00,28.8,28.0,00.0,37.9,30.6,14.9,-001.0,0041.09,0018.81,0015.95
2021-11-10 00:19:00,,0823.3,5.00,0.00,28.9,28.0,00.0,37.9,30.6,14.9,-001.0,0040.93,0018.78,0015.89
2021-11-10 00:20:00,,0823.4,5.00,0.00,28.9,28.0,00.0,37.9,30.6,14.8,-001.2,0041.48,0018.69,0015.75
2021-11-10 00:21:00,,0823.4,5.00,0.00,28.9,28.0,00.0,37.9,30.7,14.8,-001.5,0041.07,0018.57,0015.66
2021-11-10 00:22:00,,0823.4,5.00,0.00,28.8,28.0,00.0,37.9,30.7,14.8,-001.5,0042.07,0018.54,0015.62
2021-11-10 00:23:00,,0823.4,5.00,0.00,28.9,28.0,00.0,37.9,30.6,14.8,-001.4,0041.40,0018.44,0015.57
2021-11-10 00:24:00,,0823.4,5.00,0.00,28.8,28.0,00.0,37.9,30.7,14.8,-001.3,0042.01,0018.50,0015.54
2021-11-10 00:25:00,,0823.3,5.00,0.00,28.9,28.0,00.0,37.9,30.6,14.8,-001.3,0040.57,0018.49,0015.52
2021-11-10 00:26:00,,0823.3,4.99,0.00,28.9,28.0,00.0,37.9,30.6,14.8,-001.2,0039.25,0018.50,0015.50
2021-11-10 00:27:00,,0823.3,4.99,0.00,28.8,28.0,00.0,37.9,30.6,14.8,-000.9,0039.23,0018.54,0015.47
2021-11-10 00:28:00,,0823.2,5.00,0.00,28.8,28.0,00.0,37.9,30.7,14.8,-000.8,0039.08,0018.49,0015.43
2021-11-10 00:29:00,,0823.2,4.99,0.00,28.8,28.0,00.0,37.9,30.7,14.8,-001.0,0040.73,0018.49,0015.38
2021-11-10 00:30:00,,0823.3,5.01,0.00,28.8,28.0,00.0,37.9,30.6,14.8,-001.0,0040.68,0018.41,0015.28
2021-11-10 00:31:00,,0823.3,5.00,0.00,28.9,28.0,00.0,37.9,30.6,14.7,-001.0,0041.34,0018.32,0015.21
2021-11-10 00:32:00,,0823.3,4.99,0.00,28.9,28.0,00.0,37.9,30.6,14.7,-000.6,0041.13,0018.19,0015.11
2021-11-10 00:33:00,,0823.3,5.01,0.00,28.9,28.0,00.0,37.9,30.6,14.7,-000.4,0040.19,0018.02,0014.99
2021-11-10 00:34:00,,0823.2,5.01,0.00,28.9,28.0,00.0,37.9,30.6,14.7,-000.3,0041.99,0017.92,0014.87
2021-11-10 00:35:00,,0823.2,4.99,0.00,28.9,28.0,00.0,37.9,30.7,14.6,-000.4,0043.10,0017.78,0014.70
2021-11-10 00:36:00,,0823.2,5.01,0.00,28.9,28.0,00.0,37.9,30.7,14.6,-000.4,0045.22,0017.61,0014.55
2021-11-10 00:37:00,,0823.2,5.01,0.00,28.9,28.0,00.0,37.9,30.7,14.6,-000.4,0047.54,0017.42,0014.36
2021-11-10 00:38:00,,0823.2,5.00,0.00,28.9,28.0,00.0,37.9,30.7,14.6,-000.6,0048.60,0017.31,0014.23
2021-11-10 00:39:00,,0823.2,5.01,0.00,28.9,28.0,00.0,37.9,30.7,14.6,-000.8,0049.77,0017.19,0014.10
2021-11-10 00:40:00,,0823.2,5.00,0.00,28.9,28.0,00.0,37.9,30.7,14.7,-001.0,0050.31,0017.06,0014.00
2021-11-10 00:41:00,,0823.1,5.00,0.00,28.9,28.0,00.0,37.9,30.6,14.7,-001.0,0049.64,0016.98,0013.95
2021-11-10 00:42:00,,0823.2,4.98,0.00,28.9,28.0,00.0,37.9,30.6,14.6,-000.9,0049.66,0016.95,0013.94
2021-11-10 00:43:00,,0823.2,5.00,0.00,28.9,28.0,00.0,37.9,30.7,14.6,-001.2,0050.32,0016.99,0013.92
2021-11-10 00:44:00,,0823.2,5.00,0.00,28.8,28.0,00.0,37.9,30.7,14.7,-001.4,0050.95,0017.06,0013.93
2021-11-10 00:45:00,,0823.1,5.00,0.00,28.8,28.0,00.0,37.9,30.6,14.6,-001.5,0050.73,0017.08,0013.94
2021-11-10 00:46:00,,0823.1,5.01,0.00,28.9,28.0,00.0,37.9,30.6,14.6,-001.7,0049.60,0017.05,0013.97
2021-11-10 00:47:00,,0823.1,4.99,0.00,28.8,27.9,00.0,37.9,30.6,14.6,-001.6,0046.87,0017.08,0014.01
2021-11-10 00:48:00,,0823.1,5.02,0.00,28.8,28.0,00.0,37.9,30.6,14.6,-001.6,0046.03,0017.13,0014.02
2021-11-10 00:49:00,,0823.1,5.00,0.00,28.9,28.0,00.0,37.8,30.6,14.6,-001.7,0045.74,0017.04,0013.99
2021-11-10 00:50:00,,0823.1,5.00,0.00,28.9,28.0,00.0,37.9,30.6,14.6,-001.8,0045.66,0016.96,0013.96
2021-11-10 00:51:00,,0823.0,4.99,0.00,28.8,27.9,00.0,37.9,30.6,14.6,-001.7,0044.95,0017.05,0013.94
2021-11-10 00:52:00,,0822.9,5.01,0.00,28.8,27.9,00.0,37.9,30.6,14.6,-001.4,0045.92,0017.14,0013.93
2021-11-10 00:53:00,,0823.0,5.00,0.00,28.8,27.9,00.0,37.9,30.6,14.6,-001.6,0045.67,0017.17,0013.91
2021-11-10 00:54:00,,0823.0,5.00,0.00,28.8,27.9,00.0,37.9,30.6,14.7,-001.4,0045.69,0017.16,0013.87
2021-11-10 00:55:00,,0823.0,5.00,0.00,28.8,27.9,00.0,37.9,30.6,14.7,-001.1,0046.25,0017.12,0013.84
2021-11-10 00:56:00,,0823.0,4.99,0.00,28.8,27.9,00.0,37.9,30.6,14.7,-001.0,0046.21,0017.11,0013.82
2021-11-10 00:57:00,,0823.0,5.00,0.00,28.8,27.9,00.0,37.8,30.6,14.6,-001.0,0045.43,0017.05,0013.79
2021-11-10 00:58:00,,0823.1,4.99,0.00,28.8,27.9,00.0,37.8,30.6,14.6,-001.1,0046.08,0017.04,0013.77
2021-11-10 00:59:00,,0823.0,5.01,0.00,28.8,27.9,00.0,37.8,30.6,14.6,-001.0,0044.21,0017.06,0013.79
